עמוד ראשי
METAR-TAF:

METAR-TAF

שדות תעופה :

Juigalpa, ניקרגואה

קו רוחב: 12-06N, קו אורך: 085-22W, גובה: 90מטר

תצפית מזג אוויר נוכחית

הדו"ח נערך לפני 6 שעות ו 31דקות, בשעה 23:00 UTC
רוח 6קשר מכיוון דרום
טמפרטורת 31 צלסיוס
לחות 75%
לחץ 1008 hPa
ראות 10 קילומטר או יותר
עננים פזורים בגובה 2000רגל , קומולונימבוס.
עננים פזורים בגובה 8000רגל
סופת רעמים,

METAR: MNJU 262300Z 18006KT 9999 TS SCT020CB SCT080 31/26 Q1008 CB/4/C

זמן: 23:31 (05:31 UTC)


TAF: חסר

תצפיות ותחזיות מזג אוויר לגבי יותר מ- 4,000 שדות תעופה ברחבי העולם. דוחות METAR ו- TAF.

התחנות הזמינות מסומנות בנקודות צהובות ואדומות על גבי המפה.

העבר את העכבר לנקודה הצבעונית על מנת לראות את שם התחנה.

לאחר מכן, לחץ כדי לראות את תוכן ואת תחזיות מזג האוויר.

כדי לשנות את המפה: לחץ על הכפתורים הירוקים עם הפלוס השחור כדי להתקרב; על הכפתור הירוק עם המקף כדי להתרחק; או בחיצים הירוקים למפות סמוכות.


METAR-TAF: